Menominee, MI

10:54 AM CDT on July 24, 2017 (GMT -0500)
Menominee-Marinette Twin County

Weather History for KMNM - February, 2014

Change the Weather History Date:

Thursday, February 20, 2014

  Actual Average Record
Temperature  
Mean Temperature 29 °F -  
Max Temperature 37 °F 34 °F 52 °F (1981)
Min Temperature 21 °F 14 °F -14 °F (2015)
Degree Days  
Heating Degree Days 36    
Moisture  
Dew Point 29 °F    
Average Humidity 87    
Maximum Humidity 100    
Minimum Humidity 69    
Precipitation  
Precipitation 0.35 in - - ()
Sea Level Pressure  
Sea Level Pressure 29.58 in    
Wind  
Wind Speed 9 mph (ESE)    
Max Wind Speed 34 mph    
Max Gust Speed 58 mph    
Visibility 7 miles    
Events      
Averages and records for this station are not official NWS values.
T = Trace of Precipitation, MM = Missing Value Source: NWS Daily Summary

Daily Weather History Graph

Daily Weather History Graph

Search for Another Location

Airport or City:

Trip Planner

Search our weather history database for the weather conditions in past years. The results will help you decide how hot, cold, wet, or windy it might be!

Date:

Astronomy

Feb. 20, 2014 Rise Set
Actual Time 6:43 AM CST 5:25 PM CST
Civil Twilight 6:13 AM CST 5:55 PM CST
Nautical Twilight 5:39 AM CST 6:29 PM CST
Astronomical Twilight 5:05 AM CST 7:03 PM CST
Moon 11:37 PM CST (2/20) 9:10 AM CST (2/20)
Length of Visible Light 11h 41m
Length of Day
10h 41m
Waning Gibbous, 70% of the Moon is Illuminated
Feb 20
Waning Gibbous
Feb 22
Last Quarter
Mar 1
New
Mar 8
First Quarter
Mar 16
Full

Hourly Weather History & Observations

Time (CST) Temp. Windchill Dew Point Humidity Pressure Visibility Wind Dir Wind Speed Gust Speed Precip Events Conditions
12:15 AM 33.8 °F 27.0 °F 24.8 °F 70% 29.89 in 10.0 mi WSW 8.1 mph - N/A   Partly Cloudy
12:35 AM 33.8 °F 28.6 °F 24.8 °F 70% 29.88 in 10.0 mi WSW 5.8 mph - N/A   Scattered Clouds
12:55 AM 33.8 °F 29.6 °F 24.8 °F 70% 29.88 in 10.0 mi WSW 4.6 mph - N/A   Mostly Cloudy
1:15 AM 32.0 °F 26.4 °F 23.0 °F 69% 29.88 in 10.0 mi SW 5.8 mph - N/A   Overcast
1:35 AM 32.0 °F - 23.0 °F 69% 29.87 in 10.0 mi Calm Calm - N/A   Scattered Clouds
1:55 AM 30.2 °F - 21.2 °F 69% 29.87 in 10.0 mi Calm Calm - N/A   Clear
2:15 AM 30.2 °F 26.7 °F 23.0 °F 75% 29.87 in 10.0 mi SSE 3.5 mph - N/A   Partly Cloudy
2:35 AM 28.4 °F 23.3 °F 23.0 °F 80% 29.87 in 10.0 mi SE 4.6 mph - N/A   Scattered Clouds
2:55 AM 28.4 °F 24.6 °F 23.0 °F 80% 29.86 in 10.0 mi SSE 3.5 mph - N/A   Partly Cloudy
3:15 AM 28.4 °F 24.6 °F 21.2 °F 74% 29.86 in 10.0 mi South 3.5 mph - N/A   Partly Cloudy
3:35 AM 26.6 °F - 19.4 °F 74% 29.85 in 10.0 mi Calm Calm - N/A   Partly Cloudy
3:55 AM 26.6 °F 22.6 °F 21.2 °F 80% 29.85 in 10.0 mi SSE 3.5 mph - N/A   Clear
4:15 AM 26.6 °F 21.2 °F 19.4 °F 74% 29.85 in 10.0 mi SE 4.6 mph - N/A   Clear
4:35 AM 24.8 °F 20.5 °F 17.6 °F 74% 29.84 in 10.0 mi East 3.5 mph - N/A   Clear
4:55 AM 24.8 °F 19.1 °F 19.4 °F 80% 29.84 in 10.0 mi East 4.6 mph - N/A   Partly Cloudy
5:15 AM 24.8 °F 19.1 °F 21.2 °F 86% 29.83 in 10.0 mi East 4.6 mph - N/A   Clear
5:35 AM 23.0 °F 15.8 °F 19.4 °F 86% 29.82 in 10.0 mi ENE 5.8 mph - N/A   Clear
5:55 AM 21.2 °F 14.9 °F 21.2 °F 100% 29.81 in 8.0 mi East 4.6 mph - N/A   Partly Cloudy
6:15 AM 23.0 °F 18.4 °F 21.2 °F 93% 29.81 in 5.0 mi East 3.5 mph - N/A   Clear
6:35 AM 23.0 °F - 23.0 °F 100% 29.80 in 3.0 mi Calm Calm - N/A   Mostly Cloudy
6:55 AM 24.8 °F - 24.8 °F 100% 29.81 in 2.5 mi Calm Calm - N/A   Overcast
7:15 AM 26.6 °F 19.1 °F 26.6 °F 100% 29.80 in 2.0 mi East 6.9 mph - N/A   Overcast
7:35 AM 28.4 °F 23.3 °F 26.6 °F 93% 29.81 in 1.5 mi ESE 4.6 mph - N/A   Mostly Cloudy
7:55 AM 28.4 °F 23.3 °F 26.6 °F 93% 29.81 in 1.5 mi ESE 4.6 mph - N/A   Scattered Clouds
8:15 AM 28.4 °F 24.6 °F 28.4 °F 100% 29.80 in 1.8 mi ESE 3.5 mph - N/A   Scattered Clouds
8:35 AM 28.4 °F 24.6 °F 26.6 °F 93% 29.80 in 2.0 mi SE 3.5 mph - N/A   Clear
8:55 AM 28.4 °F 23.3 °F 28.4 °F 100% 29.79 in 3.0 mi SE 4.6 mph - N/A   Scattered Clouds
9:15 AM 30.2 °F 24.3 °F 28.4 °F 93% 29.79 in 4.0 mi ESE 5.8 mph - N/A   Mostly Cloudy
9:35 AM 30.2 °F 24.3 °F 28.4 °F 93% 29.79 in 5.0 mi ESE 5.8 mph - N/A   Mostly Cloudy
9:55 AM 30.2 °F 22.6 °F 28.4 °F 93% 29.77 in 5.0 mi SE 8.1 mph - N/A   Mostly Cloudy
10:15 AM 32.0 °F 24.2 °F 28.4 °F 87% 29.76 in 6.0 mi ESE 9.2 mph - N/A   Overcast
10:35 AM 33.8 °F 27.0 °F 30.2 °F 87% 29.76 in 6.0 mi ESE 8.1 mph - N/A   Overcast
10:55 AM 35.6 °F 27.1 °F 32.0 °F 87% 29.76 in 7.0 mi SSE 12.7 mph 16.1 mph N/A   Overcast
11:15 AM 35.6 °F 26.6 °F 32.0 °F 87% 29.75 in 8.0 mi SSE 13.8 mph 17.3 mph N/A   Overcast
11:35 AM 35.6 °F 29.2 °F 32.0 °F 87% 29.73 in 9.0 mi ESE 8.1 mph - N/A   Overcast
11:55 AM 35.6 °F 29.9 °F 32.0 °F 87% 29.72 in 7.0 mi ESE 6.9 mph - N/A   Overcast
12:15 PM 35.6 °F 29.9 °F 33.8 °F 93% 29.70 in 10.0 mi ESE 6.9 mph - N/A   Overcast
12:35 PM 35.6 °F 29.2 °F 32.0 °F 87% 29.69 in 10.0 mi East 8.1 mph - N/A   Overcast
12:55 PM 35.6 °F 28.0 °F 32.0 °F 87% 29.67 in 10.0 mi ESE 10.4 mph - N/A   Overcast
1:15 PM 35.6 °F 27.5 °F 32.0 °F 87% 29.65 in 10.0 mi ESE 11.5 mph - N/A   Overcast
1:35 PM 35.6 °F 27.5 °F 32.0 °F 87% 29.65 in 10.0 mi East 11.5 mph - N/A   Overcast
1:55 PM 37.4 °F 29.3 °F 32.0 °F 81% 29.63 in 10.0 mi ESE 12.7 mph - N/A   Overcast
2:15 PM 35.6 °F 27.1 °F 30.2 °F 81% 29.61 in 10.0 mi East 12.7 mph - N/A   Overcast
2:35 PM 35.6 °F 26.6 °F 30.2 °F 81% 29.59 in 10.0 mi East 13.8 mph - N/A   Overcast
2:55 PM 35.6 °F 26.2 °F 28.4 °F 75% 29.58 in 10.0 mi East 15.0 mph 19.6 mph N/A   Overcast
3:15 PM 35.6 °F 25.9 °F 30.2 °F 81% 29.54 in 10.0 mi East 16.1 mph - N/A   Overcast
3:35 PM 35.6 °F 24.8 °F 32.0 °F 87% 29.54 in 10.0 mi ESE 19.6 mph 23.0 mph N/A   Overcast
3:55 PM 35.6 °F 24.8 °F 30.2 °F 81% 29.50 in 10.0 mi East 19.6 mph - N/A   Overcast
4:15 PM 35.6 °F 24.5 °F 30.2 °F 81% 29.49 in 10.0 mi East 20.7 mph 26.5 mph N/A   Overcast
4:35 PM 35.6 °F 24.0 °F 30.2 °F 81% 29.47 in 10.0 mi East 23.0 mph 27.6 mph N/A   Overcast
4:55 PM 35.6 °F 24.0 °F 32.0 °F 87% 29.44 in 10.0 mi East 23.0 mph 35.7 mph N/A   Overcast
5:15 PM 35.6 °F 24.8 °F 30.2 °F 81% 29.42 in 10.0 mi East 19.6 mph 25.3 mph N/A   Overcast
5:35 PM 35.6 °F 24.5 °F 30.2 °F 81% 29.40 in 10.0 mi East 20.7 mph 31.1 mph N/A   Overcast
5:55 PM 35.6 °F 24.5 °F 30.2 °F 81% 29.37 in 10.0 mi East 20.7 mph 26.5 mph N/A   Overcast
6:15 PM 35.6 °F 22.5 °F 32.0 °F 87% 29.37 in 10.0 mi East 29.9 mph 38.0 mph N/A   Overcast
6:35 PM 33.8 °F 23.2 °F 30.2 °F 87% 29.36 in 7.0 mi East 17.3 mph 27.6 mph 0.01 in   Overcast
6:55 PM 33.8 °F 19.2 °F 32.0 °F 93% 29.32 in 3.0 mi East 34.5 mph 57.5 mph 0.05 in   Overcast
7:15 PM 33.8 °F 23.9 °F 32.0 °F 93% 29.29 in 7.0 mi East 15.0 mph 26.5 mph 0.04 in   Overcast
7:35 PM 33.8 °F 23.2 °F 32.0 °F 93% 29.27 in 3.0 mi East 17.3 mph - 0.12 in   Overcast
7:55 PM 33.8 °F 22.2 °F 32.0 °F 93% 29.24 in 3.0 mi East 20.7 mph - 0.20 in   Overcast
8:15 PM 33.8 °F 23.2 °F 32.0 °F 93% 29.21 in 4.0 mi East 17.3 mph 23.0 mph 0.03 in   Overcast
8:35 PM 33.8 °F 22.5 °F 32.0 °F 93% 29.19 in 3.0 mi East 19.6 mph 24.2 mph 0.07 in   Overcast
8:55 PM 33.8 °F 23.2 °F 32.0 °F 93% 29.16 in 8.0 mi East 17.3 mph - 0.08 in   Overcast
9:15 PM 33.8 °F 23.9 °F 32.0 °F 93% 29.12 in 3.0 mi East 15.0 mph - 0.01 in   Overcast
9:35 PM 33.8 °F 22.5 °F 33.8 °F 100% 29.10 in 7.0 mi East 19.6 mph 23.0 mph 0.01 in   Overcast
9:55 PM 33.8 °F 24.8 °F 33.8 °F 100% 29.08 in 3.0 mi East 12.7 mph - 0.01 in   Overcast
10:15 PM 33.8 °F 25.8 °F 32.0 °F 93% 29.06 in 3.0 mi ESE 10.4 mph - 0.01 in   Overcast
10:35 PM 35.6 °F 25.5 °F 35.6 °F 100% 29.03 in 7.0 mi SE 17.3 mph - 0.01 in   Overcast
10:55 PM 37.4 °F 27.5 °F 37.4 °F 100% 28.99 in 6.0 mi SSE 18.4 mph 25.3 mph 0.01 in   Overcast
11:15 PM 37.4 °F 28.2 °F 35.6 °F 93% 28.97 in 7.0 mi SSE 16.1 mph 25.3 mph N/A   Overcast
11:35 PM 37.4 °F 28.5 °F 37.4 °F 100% 28.95 in 7.0 mi South 15.0 mph 23.0 mph N/A   Overcast
11:55 PM 37.4 °F 26.1 °F 37.4 °F 100% 28.95 in 4.0 mi SSW 24.2 mph 29.9 mph N/A   Overcast